Flag for Burkina Faso Weather past 2 weeks in Koudougou, Burkina Faso

Now
82 °F

Sunny.


Feels Like: 87 °F
Forecast: 78 / 95 °F
Wind: 8 mph from West

Location: Ouagadougou Airport

Current Time: Jul 7, 2015 at 7:59:21 AM

Latest Report: Jul 7, 2015 at 7:00 AM


Visibility: 10 mi

Pressure: 29.98 "Hg

Humidity: 70%

Dew point: 72 °F

Location of KoudougouLocation

Historic Weather in Koudougou — Graph

°F

Koudougou temperature yesterday

Maximum temperature yesterday: 97 °F (at 4:00 PM)
Minimum temperature yesterday: 81 °F (at 12:00 AM)
Average temperature yesterday: 87 °F

Past Weeks' High & Low Weather Summary

 TemperatureHumidityPressure
High99 °F (Jun 23, 4:00 PM)100% (Jun 24, 9:00 AM)30.21 "Hg (Jun 24, 9:00 AM)
Low70 °F (Jun 24, 9:00 AM)37% (Jul 6, 4:00 PM)29.80 "Hg (Jul 5, 5:00 PM)
Average86 °F64%29.96 "Hg
* Reported Jun 22 6:00 AM — Jul 7 6:00 AM, Koudougou, Weather by CustomWeather, © 2015

Note: Actual official high and low records may vary slightly from our data, if they occured in-between our weather recording intervals... More about our weather records

Advertising

Koudougou weather history for previous 24 hours

 ConditionsComfort  
Time TempWeatherWind HumidityBarometerVisibility
6:00 AM
Tue, Jul 7
81 °FSunny.3 mph74%29.95 "Hg10 mi
5:00 AM81 °FPassing clouds.6 mph74%29.92 "HgN/A
4:00 AM81 °FPassing clouds.7 mph74%29.92 "HgN/A
3:00 AM82 °FPassing clouds.8 mph70%29.92 "HgN/A
2:00 AM82 °FPassing clouds.8 mph70%29.92 "HgN/A
1:00 AM84 °FThunderstorms. Passing clouds.10 mph66%29.92 "HgN/A
12:00 AM86 °FThunderstorms. Passing clouds.5 mph62%29.92 "HgN/A
11:00 PM
Mon, Jul 6
86 °FThunderstorms. Partly cloudy.No wind62%29.92 "HgN/A
10:00 PM86 °FThunderstorms. Partly cloudy.No wind62%29.92 "HgN/A
9:00 PM86 °FThunderstorms. Partly cloudy.No wind59%29.92 "HgN/A
8:00 PM86 °FThunderstorms. Partly cloudy.3 mph59%29.92 "HgN/A
7:00 PM91 °FThunderstorms. Partly cloudy.7 mph49%29.89 "HgN/A
6:00 PM93 °FBroken clouds.10 mph44%29.86 "HgN/A
5:00 PM95 °FBroken clouds.7 mph39%29.86 "HgN/A
4:00 PM97 °FBroken clouds.7 mph37%29.86 "HgN/A
3:00 PM95 °FBroken clouds.7 mph41%29.86 "HgN/A
2:00 PM95 °FBroken clouds.7 mph44%29.89 "HgN/A
1:00 PM91 °FPartly sunny.10 mph49%29.92 "HgN/A
12:00 PM91 °FPartly sunny.7 mph49%29.95 "HgN/A
11:00 AM90 °FPartly sunny.8 mph49%29.95 "HgN/A
10:00 AM88 °FPartly sunny.8 mph52%29.98 "HgN/A
9:00 AM86 °FPartly sunny.7 mph59%29.98 "HgN/A
8:00 AM82 °FClear.7 mph74%29.95 "Hg5 mi
7:00 AM81 °FClear.6 mph79%29.95 "Hg5 mi
Weather by CustomWeather, © 2015

See weather overviewHow to use our weather pages